TimeEST,TemperatureF,Dew PointF,Humidity,Sea Level PressureIn,VisibilityMPH,Wind Direction,Wind SpeedMPH,Gust SpeedMPH,PrecipitationIn,Events,Conditions,WindDirDegrees,DateUTC
12:56 AM,28.0,10.0,47,30.48,10.0,NNW,6.9,-,N/A,,Clear,330,2013-12-25 05:56:00
1:56 AM,27.0,10.0,49,30.47,10.0,NNW,5.8,-,N/A,,Clear,330,2013-12-25 06:56:00
2:56 AM,26.1,10.0,51,30.48,10.0,North,4.6,-,N/A,,Clear,350,2013-12-25 07:56:00
3:56 AM,26.1,9.0,49,30.49,10.0,Variable,3.5,-,N/A,,Clear,0,2013-12-25 08:56:00
4:56 AM,25.0,9.0,51,30.49,10.0,Variable,3.5,-,N/A,,Clear,0,2013-12-25 09:56:00
5:56 AM,24.1,9.0,53,30.51,10.0,Variable,3.5,-,N/A,,Clear,0,2013-12-25 10:56:00
6:56 AM,23.0,9.0,55,30.51,10.0,NNE,3.5,-,N/A,,Clear,20,2013-12-25 11:56:00
7:56 AM,24.1,9.0,53,30.54,10.0,NNE,4.6,-,N/A,,Clear,30,2013-12-25 12:56:00
8:56 AM,27.0,10.0,49,30.56,10.0,NE,8.1,-,N/A,,Clear,50,2013-12-25 13:56:00
9:56 AM,30.0,10.0,43,30.57,10.0,NE,9.2,-,N/A,,Clear,50,2013-12-25 14:56:00
10:56 AM,30.9,9.0,40,30.56,10.0,Variable,5.8,-,N/A,,Clear,0,2013-12-25 15:56:00
11:56 AM,34.0,9.0,35,30.53,10.0,Calm,Calm,-,N/A,,Clear,0,2013-12-25 16:56:00
12:56 PM,36.0,9.0,33,30.50,10.0,Calm,Calm,-,N/A,,Clear,0,2013-12-25 17:56:00
1:56 PM,37.0,9.0,31,30.48,10.0,Calm,Calm,-,N/A,,Clear,0,2013-12-25 18:56:00
2:56 PM,37.9,8.1,29,30.46,10.0,NE,3.5,-,N/A,,Clear,50,2013-12-25 19:56:00
3:56 PM,37.9,7.0,28,30.45,10.0,Calm,Calm,-,N/A,,Clear,0,2013-12-25 20:56:00
4:56 PM,35.1,8.1,33,30.46,10.0,Calm,Calm,-,N/A,,Clear,0,2013-12-25 21:56:00
6:56 PM,28.0,12.9,53,30.45,10.0,Calm,Calm,-,N/A,,Clear,0,2013-12-25 23:56:00
7:56 PM,28.9,14.0,54,30.44,10.0,Calm,Calm,-,N/A,,Clear,0,2013-12-26 00:56:00
8:56 PM,27.0,12.9,56,30.45,10.0,Calm,Calm,-,N/A,,Clear,0,2013-12-26 01:56:00
9:56 PM,27.0,16.0,63,30.44,10.0,Calm,Calm,-,N/A,,Clear,0,2013-12-26 02:56:00
10:56 PM,26.1,16.0,66,30.43,10.0,Calm,Calm,-,N/A,,Clear,0,2013-12-26 03:56:00
11:56 PM,25.0,16.0,69,30.42,10.0,Calm,Calm,-,N/A,,Clear,0,2013-12-26 04:56:00